Hourly Data Report for October 11, 2014

All times are specified in Local Standard Time (LST). Add 1 hour to adjust for Daylight Saving Time where and when it is observed.

ARVIAT A
NUNAVUT

61°05'38.000" N
94°04'18.000" W
10.40 m
2300427
71174
YEK

Download Data

Hourly Data (October 2014)
Hourly Data Report for October 11, 2014
Temp Definition
°C
Dew Point Temp Definition
°C
Rel Hum Definition
%
Wind Dir Definition
10's deg

Wind Spd Definition
km/h
Visibility Definition
km
Stn Press Definition
kPa
Hmdx Definition


Wind Chill Definition


Weather Definition


TIME
00:00 Legend Double Dagger -0.6 -1.7 92 28 15 16.1 100.73   -5 LegendNANA
01:00 Legend Double Dagger -0.6 -1.7 92 26 15 16.1 100.67   -5 LegendNANA
02:00 Legend Double Dagger -0.6 -1.7 92 27 15 16.1 100.60   -5 LegendNANA
03:00 Legend Double Dagger -0.6 -1.6 93 27 13 16.1 100.55   -5 LegendNANA
04:00 Legend Double Dagger -0.7 -1.6 94 27 13 16.1 100.48   -5 LegendNANA
05:00 Legend Double Dagger -0.9 -1.6 95 27 8 16.1 100.40   -4 LegendNANA
06:00 Legend Double Dagger -0.9 -1.6 95 28 5 16.1 100.35   -3 LegendNANA
07:00 Legend Double Dagger -0.9 -1.5 96 29 4 16.1 100.29   -2 LegendNANA
08:00 Legend Double Dagger -0.8 -1.4 96 35 4 16.1 100.22   -2 LegendNANA
09:00 Legend Double Dagger -0.7 -1.3 96 LegendMM 4 16.1 100.16   -2 LegendNANA
10:00 Legend Double Dagger -0.4 -1.0 96 1 9 16.1 100.11   -4 LegendNANA
11:00 Legend Double Dagger -0.9 -1.5 96 4 13 4.0 100.07   -5 Snow
12:00 Legend Double Dagger -0.7 -2.0 91 2 15 16.1 99.99   -5 Snow
13:00 Legend Double Dagger -0.7 -2.2 90 4 13 16.1 99.96   -5 LegendNANA
14:00 Legend Double Dagger -0.5 -2.1 89 3 15 16.1 99.92   -5 LegendNANA
15:00 Legend Double Dagger -0.7 -2.5 88 3 18 16.1 99.86   -6 LegendNANA
16:00 Legend Double Dagger -1.6 -2.7 92 3 24 16.1 99.82   -8 LegendNANA
17:00 Legend Double Dagger -2.0 -3.2 91 3 21 16.1 99.82   -8 LegendNANA
18:00 Legend Double Dagger -2.7 -3.8 92 2 24 16.1 99.84   -9 LegendNANA
19:00 Legend Double Dagger -3.1 -4.0 94 2 24 16.1 99.81   -10 LegendNANA
20:00 Legend Double Dagger -3.2 -4.2 93 3 24 16.1 99.79   -10 LegendNANA
21:00 Legend Double Dagger -2.8 -3.9 92 3 21 16.1 99.76   -9 LegendNANA
22:00 Legend Double Dagger -2.6 -3.9 91 5 18 16.1 99.76   -8 LegendNANA
23:00 Legend Double Dagger -2.5 -4.0 89 5 18 16.1 99.72   -8 LegendNANA

Notes on Data Quality.

Legend

  • E = Estimated
  • M = Missing
  • NA = Not Available
  • ‡ = Partner data that is not subject to review by the National Climate Archives
Date modified: